STARLINK-1402, 45685

Orbit data source: Space-Track

STARLINK-1402, 45685 is a payload satellite owned by SpaceX/Seattle (US) in LEO that was launched on Thu, 04 Jun 2020 UTC via an FALCON 9 launch vehicle from the Air Force Eastern Test Range (AFETR). Payload-class satellites include a variety of spacecraft equipped with specific instruments for various scientific and technological missions. These include communications satellites like Starlink; space stations such as the ISS; scientific satellites like the Hubble; Earth observation satellites from companies like Planet Labs, Umbra, and HawkEye 360; GPS; miniature CubeSats for education and research; and military/defense satellites.

Loading next visibility...
Identifier
45685, 2020-035AE
Orbit
LEO
Country
Flag of USUS
Related business
Manufacturer
SpaceX/Seattle
Mission
Partially operational Commercial Communications
Bus & Motor
STARLINK, Unknown motor
Mass
260 kg wet, ~248 kg dry
Launch date (UTC)
2020-06-04 (6 years ago)
Launch vehicle
FALCON 9
Launch site
Air Force Eastern Test Range (AFETR)
Object type
Payload
Rocket body
Debris
Shape & HBR
Box + 1 Pan, 10.1 m
Radar Cross Section
13.562 m², Large (>1 m²)

Expand to show TLE details & history
Last TLE update: 12 hours ago

TLE from 12 hours ago
0 STARLINK-1402
1 45685U 20035AE  25340.62645442  .00014907  00000-0  50684-3 0  9992
2 45685  53.0524 101.5058 0003175 249.0709 110.9951 15.30679554305038
Epoch: 2025-12-06T15:02Z
TLE epoch observation values (Epoch: 2025-12-06T15:02:05.661Z)
Latitude
-0.00003°
Longitude
160.3307°
Altitude
475.452 km
Speed
7.629 km/s
True Right ascension
06h 46m 01s
True Declination
0° 00' 00"
Sunlit
Object was in full shadow at epoch
Visualization orbit readout
Latitude
Unknown
Longitude
Unknown
Altitude
Unknown
Speed
Unknown
Apparent Right ascension
Unknown
Apparent Declination
Unknown
Sunlit
N/A
Visualization observer readout
Local Sidereal Time
00:58:38
Azimuth
Unknown
Elevation
Unknown
Doppler factor
Unknown
Orbital elements
Apogee altitude
476.233 km
Perigee altitude
471.882 km
Semi-major axis
6,852.194 km
Eccentricity
0.00032
Inclination
53.0524°
RAAN
101.5058°
Arg. of periapsis
249.0709°
True anomaly
111.02906°
Mean anomaly
110.9951°
Eccentric anomaly
111.01208°
Mean motion
3.82647 °/min
Orbital period
94.08 mins
BSTAR
0.00050684
Loading maneuver chart data...
Computing Atmospheric mass density...

Documentation

Showing up to 5 results
|